Location: Newark
(54.5667°N, 9.6500°E)
Time: 01:21:35
(UTC+00:00)

NO-84 - Visible Passes

Search period start: 22 January 2021 00:00
Search period end: 01 February 2021 00:00
Orbit: 318 x 451 km, 55.0° (Epoch: 13 January)

Date Brightness Start Highest point End Pass type
(mag) Time Alt. Az. Time Alt. Az. Time Alt. Az.
24 Jan ? 18:28:48 10° SW 18:29:06 12° SW 18:29:06 12° SW visible
25 Jan ? 17:30:44 10° SSW 17:32:45 19° SE 17:32:45 19° SE visible
26 Jan ? 16:33:40 10° SSE 16:34:21 11° SE 16:35:02 10° ESE visible
26 Jan ? 18:06:48 10° SW 18:08:34 32° SSW 18:08:34 32° SSW visible
27 Jan ? 17:08:25 10° SSW 17:10:47 27° SSE 17:12:03 19° ESE visible
27 Jan ? 18:43:30 10° WSW 18:44:17 17° WSW 18:44:17 17° WSW visible
28 Jan ? 17:44:44 10° WSW 17:47:26 62° SSE 17:47:41 58° SE visible
29 Jan ? 16:46:07 10° SW 16:48:40 37° SSE 16:51:01 12° E visible
29 Jan ? 18:21:28 10° W 18:23:15 36° W 18:23:15 36° W visible
30 Jan ? 17:22:35 10° WSW 17:25:18 78° SSE 17:26:32 29° E visible
30 Jan ? 18:58:14 10° W 18:58:45 14° W 18:58:45 14° W visible
31 Jan ? 17:59:18 10° W 18:01:59 78° NNW 18:01:59 78° NNW visible
